Regional Weather Roundup
Issued by NWS Cleveland, OH

Home | Current Version | Previous Version | Text Only | Print | Product List | Glossary Off
Versions: 1 2 3 4 5 6 7 8 9 10 11 12 13 14 15 16 17 18 19 20 21 22 23 24 25 26 27 28 29 30 31 32 33 34 35 36 37 38 39 40 41 42 43 44 45 46 47 48 49 50

000
ASUS41 KCLE 281810
RWRCLE
OHIO REGIONAL WEATHER ROUNDUP
NATIONAL WEATHER SERVICE CLEVELAND, OH
200 PM EDT SAT MAR 28 2015

NOTE: "FAIR" INDICATES FEW OR NO CLOUDS BELOW 12,000 FEET WITH NO
SIGNIFICANT WEATHER AND/OR OBSTRUCTIONS TO VISIBILITY.

OHZ001>008-015>018-024>027-034-035-043-044-281900-
   NORTHWEST OHIO

CITY           SKY/WX    TMP DP  RH WIND       PRES   REMARKS
DEFIANCE       SUNNY     32  13  45 VRB5      30.31F WCI  27
FINDLAY        CLOUDY    30  11  45 NW10      30.28F WCI  21
TOLEDO EXPRESS MOSUNNY   30  10  43 NW9       30.29F WCI  22
TOLEDO EXEC    MOSUNNY   30  10  43 VRB5      30.31S WCI  25
LIMA           PTSUNNY   29  12  49 VRB5G16   30.28S WCI  24
$$

OHZ009>014-019>023-028>033-038-089-281900-
   NORTHEAST OHIO

CITY           SKY/WX    TMP DP  RH WIND       PRES   REMARKS
CLE-HOPKINS    MOSUNNY   24   9  52 N14G22    30.29S WCI  12
CLE-LAKEFRONT  MOSUNNY   24   8  50 N10       30.28S WCI  14
CUY CO. ARPT   PTSUNNY   23  12  63 N16G23    30.26R WCI  10
LORAIN-ELYRIA  MOSUNNY   23  11  60 N14G23    30.28S WCI  11
ASHTABULA      SUNNY     21   5  50 NW10G22   30.22R WCI  10
AKRON-CANTON   MOSUNNY   27  10  49 N14G24    30.19S WCI  16
WOOSTER        SUNNY     25  10  53 N18G24    30.23R WCI  11
MANSFIELD      CLOUDY    23  10  57 N15G22    30.24R WCI  10
YOUNGSTOWN     PTSUNNY   24  11  57 NW18      30.17S WCI  10
$$

OHZ042-051>053-060>062-070>072-077>081-281900-
  SOUTHWEST OHIO

CITY           SKY/WX    TMP DP  RH WIND       PRES   REMARKS
CINC-COVINGTON MOSUNNY   34  14  43 N14       30.28S WCI  25
CINC-LUNKEN    SUNNY     34  13  41 N9        30.32R WCI  27
HAMILTON       SUNNY     34  13  41 MISG      30.31F
DAYTON         MOSUNNY   31  12  45 N13G20    30.29S WCI  21
WRIGHT-PAT AFB MOSUNNY   30   9  41 N8        30.29S WCI  22
DAYTON GENERAL SUNNY     30  10  43 NW3G16    30.27S
WILMINGTON     MOSUNNY   28  10  46 VRB5      30.27S WCI  23
$$

OHZ036-037-039>041-045>050-054>059-063>069-073>076-082>088-281900-
  CENTRAL AND SOUTHEAST OHIO

CITY           SKY/WX    TMP DP  RH WIND       PRES   REMARKS
COLUMBUS       PTSUNNY   28  10  46 NW8G16    30.27S WCI  20
OSU AIRPORT    PTSUNNY   30  11  45 N10G20    30.27S WCI  21
BOLTON FIELD   PTSUNNY   27  10  50 N10G16    30.27S WCI  17
RICKENBACK AFB MOSUNNY   29   8  41 N3        30.27S
NEWARK         PTSUNNY   28  12  51 NW9G18    30.25S WCI  19
MARION         PTSUNNY   26  10  50 N13       30.28R WCI  15
LANCASTER      PTSUNNY   28  12  51 NW12      30.26S WCI  18
ZANESVILLE     PTSUNNY   26  13  57 NW15G21   30.23S WCI  14
NEW PHILLY     SUNNY     30   7  37 W14G22    30.21S WCI  19
$$



USA.gov is the U.S. government's official web portal to all federal, state and local government web resources and services.